EN

Hourly Weather Almyakovo

Today, 24 January, Sunday

Time Temperature Precipitation Wind Pressure Humidity
00:00 -23°C° 0 mm 1 mps 761 mmHg 98%
01:00 -24°C° 0 mm 1 mps 761 mmHg 98%
02:00 -25°C° 0 mm 1 mps 761 mmHg 98%
03:00 -29°C° 0 mm 2 mps 762 mmHg 98%
04:00 -24°C° 0 mm 1 mps 762 mmHg 98%
05:00 -24°C° 0 mm 1 mps 762 mmHg 98%
06:00 -24°C° 0 mm 0 mps 762 mmHg 98%
07:00 -24°C° 0 mm 0 mps 762 mmHg 98%
08:00 -24°C° 0 mm 0 mps 762 mmHg 98%
09:00 -24°C° 0 mm 0 mps 762 mmHg 98%
10:00 -24°C° 0 mm 1 mps 763 mmHg 97%
11:00 -23°C° 0 mm 1 mps 763 mmHg 95%
12:00 -23°C° 0 mm 1 mps 763 mmHg 94%
13:00 -24°C° 0 mm 1 mps 763 mmHg 94%
14:00 -27°C° 0 mm 2 mps 764 mmHg 94%
15:00 -28°C° 0 mm 2 mps 764 mmHg 95%
16:00 -29°C° 0 mm 2 mps 764 mmHg 95%
17:00 -31°C° 0 mm 2 mps 765 mmHg 96%
18:00 -34°C° 0 mm 2 mps 766 mmHg 96%
19:00 -35°C° 0 mm 2 mps 766 mmHg 97%
20:00 -37°C° 0 mm 2 mps 766 mmHg 97%
21:00 -39°C° 0 mm 2 mps 767 mmHg 97%
22:00 -40°C° 0 mm 2 mps 767 mmHg 97%
23:00 -42°C° 0 mm 2 mps 768 mmHg 97%

Tomorrow, 25 January, Monday

Time Temperature Precipitation Wind Pressure Humidity
00:00 -43°C° 0 mm 2 mps 768 mmHg 97%
01:00 -45°C° 0 mm 2 mps 769 mmHg 97%
02:00 -46°C° 0 mm 2 mps 769 mmHg 97%
03:00 -47°C° 0 mm 2 mps 770 mmHg 97%
04:00 -47°C° 0 mm 2 mps 770 mmHg 97%
05:00 -48°C° 0 mm 2 mps 771 mmHg 96%
06:00 -49°C° 0 mm 2 mps 771 mmHg 96%
07:00 -45°C° 0 mm 1 mps 772 mmHg 96%
08:00 -45°C° 0 mm 1 mps 772 mmHg 96%
09:00 -46°C° 0 mm 1 mps 773 mmHg 96%
10:00 -44°C° 0 mm 1 mps 773 mmHg 94%
11:00 -43°C° 0 mm 1 mps 773 mmHg 93%
12:00 -42°C° 0 mm 1 mps 773 mmHg 91%
13:00 -41°C° 0 mm 1 mps 774 mmHg 91%
14:00 -41°C° 0 mm 1 mps 774 mmHg 91%
15:00 -40°C° 0 mm 1 mps 774 mmHg 90%
16:00 -41°C° 0 mm 1 mps 774 mmHg 92%
17:00 -42°C° 0 mm 1 mps 774 mmHg 93%
18:00 -43°C° 0 mm 1 mps 774 mmHg 95%
19:00 -44°C° 0 mm 1 mps 774 mmHg 95%
20:00 -44°C° 0 mm 1 mps 775 mmHg 95%
21:00 -45°C° 0 mm 1 mps 775 mmHg 95%
22:00 -45°C° 0 mm 1 mps 775 mmHg 95%
23:00 -44°C° 0 mm 0 mps 774 mmHg 95%

Day after tomorrow, 26 January, Tuesday

Time Temperature Precipitation Wind Pressure Humidity
00:00 -44°C° 0 mm 0 mps 774 mmHg 96%
01:00 -44°C° 0 mm 0 mps 774 mmHg 96%
02:00 -44°C° 0 mm 0 mps 775 mmHg 96%
03:00 -43°C° 0 mm 0 mps 775 mmHg 96%
04:00 -44°C° 0 mm 0 mps 775 mmHg 96%
05:00 -44°C° 0 mm 0 mps 775 mmHg 96%
06:00 -44°C° 0 mm 0 mps 775 mmHg 96%
07:00 -44°C° 0 mm 0 mps 775 mmHg 96%
08:00 -44°C° 0 mm 0 mps 775 mmHg 96%
09:00 -44°C° 0 mm 0 mps 775 mmHg 96%
10:00 -43°C° 0 mm 0 mps 776 mmHg 93%
11:00 -41°C° 0 mm 0 mps 776 mmHg 91%
12:00 -39°C° 0 mm 0 mps 776 mmHg 88%
13:00 -39°C° 0 mm 0 mps 776 mmHg 88%
14:00 -38°C° 0 mm 0 mps 776 mmHg 87%
15:00 -38°C° 0 mm 0 mps 776 mmHg 86%
16:00 -39°C° 0 mm 0 mps 776 mmHg 89%
17:00 -40°C° 0 mm 0 mps 777 mmHg 91%
18:00 -41°C° 0 mm 0 mps 777 mmHg 93%
19:00 -42°C° 0 mm 0 mps 777 mmHg 93%
20:00 -42°C° 0 mm 0 mps 777 mmHg 93%
21:00 -43°C° 0 mm 1 mps 777 mmHg 93%
22:00 -43°C° 0 mm 1 mps 778 mmHg 93%
23:00 -43°C° 0 mm 1 mps 778 mmHg 94%

27 January, Wednesday

Time Temperature Precipitation Wind Pressure Humidity
00:00 -44°C° 0 mm 1 mps 778 mmHg 94%
01:00 -44°C° 0 mm 1 mps 778 mmHg 94%
02:00 -43°C° 0 mm 1 mps 778 mmHg 94%
03:00 -43°C° 0 mm 1 mps 778 mmHg 94%
04:00 -43°C° 0 mm 1 mps 778 mmHg 94%
05:00 -43°C° 0 mm 1 mps 778 mmHg 95%
06:00 -43°C° 0 mm 1 mps 778 mmHg 95%
07:00 -43°C° 0 mm 1 mps 778 mmHg 95%
08:00 -42°C° 0 mm 1 mps 778 mmHg 95%
09:00 -46°C° 0 mm 2 mps 778 mmHg 96%
10:00 -43°C° 0 mm 2 mps 778 mmHg 95%
11:00 -42°C° 0 mm 2 mps 777 mmHg 94%
12:00 -42°C° 0 mm 3 mps 777 mmHg 92%
13:00 -41°C° 0 mm 3 mps 776 mmHg 92%
14:00 -40°C° 0 mm 3 mps 775 mmHg 92%
15:00 -39°C° 0 mm 3 mps 775 mmHg 92%
16:00 -38°C° 0 mm 3 mps 774 mmHg 91%
17:00 -38°C° 0 mm 3 mps 773 mmHg 91%
18:00 -38°C° 0 mm 4 mps 773 mmHg 91%
19:00 -37°C° 0 mm 4 mps 772 mmHg 90%
20:00 -35°C° 0 mm 4 mps 771 mmHg 90%
21:00 -34°C° 0 mm 4 mps 770 mmHg 89%
22:00 -33°C° 0.1 mm 4 mps 769 mmHg 90%
23:00 -32°C° 0.1 mm 4 mps 768 mmHg 91%

28 January, Thursday

Time Temperature Precipitation Wind Pressure Humidity
00:00 -31°C° 0.1 mm 4 mps 767 mmHg 92%
01:00 -30°C° 0.3 mm 4 mps 765 mmHg 94%
02:00 -28°C° 0.3 mm 5 mps 764 mmHg 95%
03:00 -27°C° 0.3 mm 5 mps 763 mmHg 96%
04:00 -25°C° 0.4 mm 4 mps 762 mmHg 96%
05:00 -24°C° 0.4 mm 4 mps 762 mmHg 96%
06:00 -23°C° 0.4 mm 4 mps 761 mmHg 96%
07:00 -23°C° 0.3 mm 4 mps 761 mmHg 95%
08:00 -22°C° 0.3 mm 4 mps 760 mmHg 94%
09:00 -20°C° 0.3 mm 4 mps 760 mmHg 94%
10:00 -20°C° 0.1 mm 4 mps 760 mmHg 93%
11:00 -19°C° 0.1 mm 4 mps 760 mmHg 92%
12:00 -18°C° 0.1 mm 4 mps 760 mmHg 92%
13:00 -17°C° 0.1 mm 4 mps 760 mmHg 91%
14:00 -17°C° 0.1 mm 4 mps 760 mmHg 91%
15:00 -16°C° 0.1 mm 4 mps 760 mmHg 91%
16:00 -15°C° 0 mm 3 mps 760 mmHg 92%
17:00 -15°C° 0 mm 3 mps 760 mmHg 92%
18:00 -15°C° 0 mm 3 mps 760 mmHg 93%
19:00 -14°C° 0.1 mm 3 mps 760 mmHg 92%
20:00 -15°C° 0.1 mm 4 mps 760 mmHg 92%
21:00 -14°C° 0.1 mm 4 mps 759 mmHg 92%
22:00 -14°C° 0.1 mm 4 mps 759 mmHg 92%
23:00 -14°C° 0.1 mm 4 mps 759 mmHg 93%

29 January, Friday

Time Temperature Precipitation Wind Pressure Humidity
00:00 -12°C° 0.1 mm 4 mps 758 mmHg 93%
Show more